User: anonymous   Login
Location: Unspecified
(0.0000°N, 0.0000°E)
Time: 14:10:13
(UTC+02:00)
Language:

Cosmos 1092 Rocket - Orbit

View from above orbital plane
View from above orbital plane
View from above satellite
View from above satellite

Ground track
Ground track

The orbit data is extracted from the following two-line orbital elements,

1 11327U 79030B   17232.68759163 -.00000034 +00000-0 -49710-4 0  9997
2 11327 082.9467 247.9579 0027639 002.1128 134.8654 13.76963545927802
Epoch (UTC): 20 August 2017 16:30:07
Eccentricity: 0.0027639
inclination: 82.9467°
perigee height: 954 km
apogee height: 995 km
right ascension of ascending node: 247.9579°
argument of perigee: 2.1128°
revolutions per day: 13.76963545
mean anomaly at epoch: 134.8654°
orbit number at epoch: 92780

The dashed part of the orbit path shows where the satellite is in the earth's shadow,  

DLR